Bookmark and Share
Track history (hours):
 

Mariq

Last reported at 2014-Apr-17 11:18 UTC. Time now 2014-Apr-17 21:48 UTC.
Position N 37°32' E 024°14'.

Length 57 m.

Type: Tanker. MMSI: 239758424.

NotesDate/timePositionNaut miles runAvg speedWind from/ knotsBaromVisibWave heightAir tempDewpointWater temp
2014-Apr-17 11:18N 37°32' E 024°14'7 9.3
2014-Apr-17 10:31N 37°30' E 024°22'10 9.5
2014-Apr-17 09:30N 37°28' E 024°34'9 9.7
2014-Apr-17 08:33N 37°24' E 024°45'10 9.7
2014-Apr-17 07:33N 37°21' E 024°56'9 9.4
2014-Apr-17 06:33N 37°18' E 025°08'1010.0
2014-Apr-17 05:33N 37°16' E 025°20'20 9.8
2014-Apr-17 03:33N 37°08' E 025°43'5 4.6
2014-Apr-17 02:33N 37°06' E 025°48'0 0.0
2014-Apr-17 01:33N 37°06' E 025°48'0 0.0
2014-Apr-17 00:33N 37°06' E 025°48'0 0.0
2014-Apr-16 23:33N 37°06' E 025°48'0 0.0
2014-Apr-16 22:33N 37°06' E 025°48'4 4.5
2014-Apr-16 21:33N 37°03' E 025°43'10 9.9
2014-Apr-16 20:33N 36°57' E 025°34'5 5.2
2014-Apr-16 19:33N 36°52' E 025°31'0 0.0
2014-Apr-16 18:33N 36°52' E 025°31'0 0.0
2014-Apr-16 17:33N 36°52' E 025°31'0 0.0
2014-Apr-16 16:33N 36°52' E 025°31'1 0.8
2014-Apr-16 15:32N 36°52' E 025°30'6 6.3
2014-Apr-16 14:33N 36°56' E 025°36'0 0.0
2014-Apr-16 13:33N 36°56' E 025°36'0 0.0
2014-Apr-16 12:33N 36°56' E 025°36'0 0.0
2014-Apr-16 11:33N 36°56' E 025°36'0 0.0
2014-Apr-16 10:33N 36°56' E 025°36'0 0.0
2014-Apr-16 09:30N 36°56' E 025°36'0 0.0
2014-Apr-16 08:33N 36°56' E 025°36'0 0.0
2014-Apr-16 07:33N 36°56' E 025°36'0 0.0
2014-Apr-16 06:33N 36°56' E 025°36'0 0.0
2014-Apr-16 05:33N 36°56' E 025°36'0 0.0
2014-Apr-16 04:33N 36°56' E 025°36'5 5.1
2014-Apr-16 03:33N 36°54' E 025°30'9 9.3
2014-Apr-16 02:33N 36°54' E 025°19'9 9.1
2014-Apr-16 01:33N 36°55' E 025°07'9 9.0
2014-Apr-16 00:33N 36°56' E 024°56'9 8.6
2014-Apr-15 23:33N 37°01' E 024°47'9 8.7
2014-Apr-15 22:31N 37°08' E 024°40'9 8.7
2014-Apr-15 21:27N 37°14' E 024°31'8 8.5
2014-Apr-15 20:33N 37°17' E 024°22'11 8.4
2014-Apr-15 19:16N 37°26' E 024°15'7 8.4
2014-Apr-15 18:27N 37°32' E 024°10'21 1.4
2014-Apr-15 03:34N 37°27' E 024°36'10 9.9
2014-Apr-15 02:33N 37°22' E 024°48'10 9.8
2014-Apr-15 01:34N 37°21' E 024°60'1010.0
2014-Apr-15 00:34N 37°20' E 025°13'1010.2
2014-Apr-14 23:34N 37°20' E 025°25'2010.1
2014-Apr-14 21:34N 37°18' E 025°51'1010.0
2014-Apr-14 20:34N 37°18' E 026°03'1010.1
2014-Apr-14 19:34N 37°17' E 026°16'10 9.7
2014-Apr-14 18:34N 37°16' E 026°28'5 5.2
2014-Apr-14 17:31N 37°19' E 026°33'0 0.1
2014-Apr-14 15:32N 37°19' E 026°33'0 0.0
2014-Apr-14 10:31N 37°19' E 026°33'43 3.5
2014-Apr-13 22:25N 37°18' E 025°39'8 9.0
2014-Apr-13 21:33N 37°19' E 025°29'9 9.2
2014-Apr-13 20:33N 37°19' E 025°18'9 9.1
2014-Apr-13 19:33N 37°20' E 025°06'9 9.3
2014-Apr-13 18:33N 37°21' E 024°55'9 9.2
2014-Apr-13 17:33N 37°24' E 024°44'10 9.5
2014-Apr-13 16:30N 37°27' E 024°32'12 9.2
2014-Apr-13 15:11N 37°31' E 024°17'10 0.9
2014-Apr-13 03:15N 37°36' E 024°06'710.2
2014-Apr-13 02:33N 37°29' E 024°10'1110.4
2014-Apr-13 01:32N 37°20' E 024°16'1410.5
2014-Apr-13 00:13N 37°07' E 024°23'710.4
2014-Apr-12 23:31N 37°01' E 024°28'1010.2
2014-Apr-12 22:33N 36°53' E 024°34'6 0.4
2014-Apr-12 07:15N 36°47' E 024°35'4 5.4
2014-Apr-12 06:32N 36°51' E 024°36'9 9.3
2014-Apr-12 05:33N 36°59' E 024°31'9 9.2
2014-Apr-12 04:32N 37°06' E 024°24'10 9.1
2014-Apr-12 03:28N 37°15' E 024°19'12 9.3
2014-Apr-12 02:08N 37°26' E 024°12'6 9.5
2014-Apr-12 01:32N 37°32' E 024°09'2 0.1
2014-Apr-11 13:11N 37°33' E 024°10'610.1
2014-Apr-11 12:33N 37°27' E 024°14'1010.1
2014-Apr-11 11:32N 37°18' E 024°20'11 9.8
2014-Apr-11 10:24N 37°13' E 024°32'8 9.8
2014-Apr-11 09:32N 37°07' E 024°40'10 9.9
2014-Apr-11 08:33N 37°01' E 024°49'10 9.8
2014-Apr-11 07:32N 36°55' E 024°60'10 9.9
2014-Apr-11 06:33N 36°54' E 025°12'10 9.9
2014-Apr-11 05:31N 36°54' E 025°25'9 9.6
2014-Apr-11 04:33N 36°56' E 025°36'0 0.1
2014-Apr-11 03:33N 36°56' E 025°36'0 0.0
2014-Apr-11 02:33N 36°56' E 025°36'0 0.0
2014-Apr-11 01:33N 36°56' E 025°36'0 0.0
2014-Apr-11 00:33N 36°56' E 025°36'0 0.0
2014-Apr-10 23:33N 36°56' E 025°36'0 0.1
2014-Apr-10 22:28N 36°56' E 025°36'7 7.6
2014-Apr-10 21:33N 36°55' E 025°45'9 8.7
2014-Apr-10 20:32N 36°54' E 025°56'2 2.2
2014-Apr-10 19:33N 36°54' E 025°59'0 0.0
2014-Apr-10 18:33N 36°54' E 025°59'0 0.0
2014-Apr-10 17:33N 36°54' E 025°59'0 0.0
2014-Apr-10 16:33N 36°54' E 025°59'0 0.0
2014-Apr-10 15:32N 36°54' E 025°59'0 0.0
2014-Apr-10 14:33N 36°54' E 025°59'0 0.0
2014-Apr-10 13:33N 36°54' E 025°59'0 0.0
2014-Apr-10 12:33N 36°54' E 025°59'0 0.0
2014-Apr-10 11:33N 36°54' E 025°59'0 0.0
2014-Apr-10 10:33N 36°54' E 025°59'4 3.7
2014-Apr-10 09:33N 36°56' E 026°02'16 8.1
2014-Apr-10 07:33N 36°50' E 026°21'8 7.8
2014-Apr-10 06:33N 36°46' E 026°29'  
2014-Apr-07 13:03N 36°18' E 026°35'510.4
2014-Apr-07 12:33N 36°20' E 026°30'1010.1
2014-Apr-07 11:33N 36°26' E 026°19'  

Dump ship's entire track history

sailing weather and tide predictions

Mariq — SVA2152 — position and weather